Location: Les Chemineaux
(47.3024°N, 1.5104°E)
Time: 21:21:19
(UTC+00:00)

Cosmos 2366 rocket - Pass Details

Date: 19 May 2025
Orbit: 955 x 995 km, 82.9° (Epoch: 12 June)

Event Time Altitude Azimuth Distance (km) Brightness Sun altitude
Rises 21:07:39 0° 352° (N) 3,727 8.1 -13.4°
Reaches altitude 10° 21:10:12 10° 355° (N) 2,773 7.3 -13.7°
Maximum altitude 21:16:34 70° 79° (E) 1,052 4.1 -14.4°
Enters shadow 21:21:09 20° 160° (SSE) 2,126 5.2 -14.8°
